STARLINK-2371 (47911 NORAD) Tracking and Keplerian Element Data

This shows tracking and keplerian element data for the satellite.

Feedback or suggestion? Click here.




ElementValue
Catalog47911
NameSTARLINK-2371
Epoch Orbit195
Epoch Day173.91668981
Epoch Year2021
RAAN91.3529
Inclination53.0739
Eccentricity0.0001432
Argument of Perigee71.9811
Mean Anonmoly322.522
Mean Motion15.06397571
Decay Rate-1.992E-05
L11 47911U 21021BD 21173.91668981 -.00001992 00000-0 -11487-3 0 9997
L22 47911 53.0739 91.3529 0001432 71.9811 322.5220 15.06397571 1952

Live tracking and technical data element details for STARLINK-2371 (NORAD 47911). STARLINK-2371 can be tracked NOW for your location showing map with azimuth and elevation plus other details from your city location.

Track the satellite on the map from your city or location and see movement details for azimuth, elevation, latitude, longitude, range, height, and movement on the map or in text.







IsCatalogInMostPopularTable: catalog: 47911, numindb: 46
Update: records affected: 1



GetName: 47911 STARLINK-2371

Hit Count: updated at: Thu, 24 Jun 2021 02:31:46 GMT